Location: ActonStarParty
(42.4766°N, 71.4538°W)
Time: 17:31:56
(UTC-04:00)

Daily predictions for brighter satellites

Satellite Brightness Start Highest point End
(mag) Time Altitude Azimuth Time Altitude Azimuth Time Altitude Azimuth
Meteor 1-20 Rocket 4.5 19:57:38 10° SSW 20:03:09 76° W 20:08:39 10° N
Meteor 1-19 Rocket 4.5 20:03:07 10° N 20:08:55 58° ENE 20:14:36 10° SSE
Cosmos 2360 Rocket 3.3 20:08:53 10° SSE 20:13:03 22° E 20:17:12 10° NE
USA 267 3.7 20:06:53 10° SSE 20:13:21 60° SW 20:19:50 10° NW
NOSS 2-3 (D) 4.2 20:09:04 10° S 20:13:27 42° ESE 20:18:25 10° NE
Cosmos 2026 Rocket 4.3 20:07:30 10° S 20:13:51 80° W 20:20:17 10° N
Cosmos 1980 Rocket 3.2 20:08:24 10° SW 20:13:52 53° WNW 20:19:21 10° NNE
Cosmos 1428 Rocket 4.5 20:08:10 10° S 20:14:25 75° E 20:20:39 10° N
Okean 1 3.9 20:12:22 10° NNW 20:16:19 61° W 20:20:14 10° S
Cosmos 1536 Rocket 3.7 20:12:12 10° N 20:16:26 52° ENE 20:20:40 10° SSE
Cosmos 1741 Rocket 4.2 20:13:06 10° NNW 20:18:15 54° ENE 20:23:24 10° SE
BREEZE-M DEB (TANK) 1.5 20:14:39 10° SW 20:18:58 75° SSE 20:21:05 10° ENE
Envisat 3.1 20:16:07 10° SSE 20:21:06 61° ENE 20:26:07 10° N
Cosmos 1939 Rocket 3.4 20:18:43 10° SE 20:22:24 39° ENE 20:26:05 10° N
Lacrosse 5 rocket 2.8 20:19:19 10° WNW 20:22:31 28° SW 20:25:51 10° S
Cosmos 1536 3.4 20:19:19 10° SSE 20:23:05 37° E 20:26:52 10° NNE
H-2A R/B 4.0 20:28:39 10° ENE 20:30:16 11° ENE 20:31:53 10° NE
Cosmos 1655 Rocket 4.3 20:28:11 10° SSW 20:34:27 73° W 20:40:49 10° N
Meteor 2-4 Rocket 3.7 20:30:38 10° N 20:36:12 68° E 20:41:53 10° SSE
CZ-2D R/B 4.4 20:34:01 10° S 20:37:44 46° W 20:41:28 10° NNW
ATLAS 2AS CENTAUR R/B 3.1 20:32:13 10° SSW 20:39:40 59° ESE 20:47:35 10° NE
CZ-4B DEB 3.9 20:43:54 20° E 20:44:37 22° ENE 20:46:57 10° NNE
BREEZE-M DEB (TANK) 2.7 20:42:24 10° SW 20:45:18 81° SSE 20:53:36 10° ENE
BREEZE-M DEB (TANK) 4.1 20:44:20 10° WNW 20:47:50 50° SSW 20:59:03 13° SE
Cosmos 1110 Rocket 4.3 20:44:46 10° S 20:49:35 41° ESE 20:54:26 10° NE
NOSS 2-3 (E) 3.9 20:45:35 10° SW 20:50:15 89° WNW 20:55:46 10° NE
Helios 1B rocket 2.8 20:50:08 10° NNE 20:54:04 42° E 20:57:36 12° S
Cosmos 883 Rocket 4.4 20:49:15 10° N 20:55:21 69° E 21:01:21 11° SSE
SPOT 5 4.3 20:54:21 18° E 20:56:07 21° ENE 20:59:36 10° NNE
USA 186 3.6 20:53:16 10° SSW 20:56:21 33° W 20:59:27 10° NNW
Lacrosse 5 1.8 20:53:44 10° SW 20:58:47 75° SE 21:03:51 10° NE
Cosmos 1850 Rocket 4.4 20:54:38 10° NNW 20:59:55 64° WSW 21:05:07 10° S
Cosmos 1331 Rocket 4.2 20:57:42 10° S 21:02:39 48° ESE 21:07:40 10° NNE
Atlas Centaur 2 4.0 20:58:11 10° WSW 21:04:56 28° SSW 21:08:53 18° SSE
SeaSat 1 2.5 21:02:24 10° NNE 21:07:21 80° WNW 21:12:17 10° SSW
SL-8 R/B 4.1 21:02:43 10° WNW 21:07:27 57° NNE 21:10:16 23° E
ARGOS 3.7 21:08:23 25° ESE 21:10:50 40° ENE 21:15:49 10° N
Cosmos 1607 4.1 21:07:22 10° NW 21:13:51 76° WSW 21:18:19 21° SSE
Okean 1 Rocket 3.2 21:13:27 10° SSW 21:17:47 74° W 21:22:11 10° N
Cosmos 220 Rocket 4.1 21:13:45 10° NNW 21:18:03 72° WSW 21:20:29 25° S
Cosmos 2263 Rocket 2.8 21:13:56 10° NNW 21:19:30 56° WSW 21:23:58 16° S
Cosmos 1025 Rocket 2.9 21:16:53 10° N 21:21:11 85° E 21:23:14 30° S
Cosmos 2278 Rocket 4.0 21:19:02 10° N 21:22:41 17° NE 21:24:48 14° ENE
Okean 2 3.2 21:19:10 10° N 21:23:16 77° E 21:24:45 38° SSE
Cosmos 2322 Rocket 3.5 21:18:40 10° SW 21:24:03 42° WNW 21:29:28 10° NNE
YAOGAN 6 3.4 21:22:13 19° SSW 21:24:25 46° W 21:27:51 10° NNW
Cosmos 1844 Rocket 3.4 21:21:15 10° N 21:26:35 39° ENE 21:28:30 30° E
Tiangong 1 2.4 21:24:55 10° W 21:26:47 25° SW 21:26:47 25° SW
Cosmos 1818 4.0 21:29:42 37° ESE 21:30:04 37° ESE 21:35:02 10° NE
Cosmos 2237 4.2 21:24:38 10° S 21:30:11 59° ESE 21:35:48 10° NNE
Okean 1-7 Rocket 3.6 21:26:16 10° N 21:30:47 81° W 21:32:58 30° S
SPOT 1/Viking Rocket 4.3 21:30:03 32° E 21:31:19 37° ENE 21:36:06 10° N
Resurs 01 Rocket 4.3 21:29:40 10° SW 21:32:27 16° W 21:35:14 10° NW
NOSS 3-2 (A) 4.5 21:27:08 10° NNW 21:34:17 49° NE 21:38:15 28° ESE
SL-16 R/B 3.9 21:31:13 10° WSW 21:36:21 34° WNW 21:41:30 10° N
USA 238 DEB 3.7 21:29:29 10° NW 21:36:37 78° NE 21:39:58 35° SE
USA 238 3.8 21:29:35 10° NW 21:36:43 77° NE 21:40:03 35° SE
Abrixas rocket 3.3 21:33:48 10° NW 21:36:52 35° NNE 21:37:17 34° NNE
Cosmos 1515 3.6 21:33:21 10° N 21:37:11 85° W 21:37:54 57° S
Terra 3.4 21:38:02 21° ENE 21:38:12 21° ENE 21:41:41 10° NNE
Cosmos 2315 Rocket 4.1 21:32:39 10° N 21:38:54 75° W 21:43:24 20° S
YAOGAN 11 4.4 21:39:16 44° E 21:39:35 45° ENE 21:43:43 10° N
Cosmos 1975 3.0 21:40:38 52° ENE 21:40:38 52° ENE 21:44:15 10° NNE
MetOp-B 4.0 21:38:08 36° SSE 21:40:25 84° ENE 21:45:48 10° NNW
Cosmos 2219 Rocket 3.2 21:42:46 28° E 21:42:46 28° E 21:46:31 10° NE
Helios 1A 4.3 21:41:23 18° SSW 21:44:01 37° W 21:47:59 10° NNW
Meteor 1-12 Rocket 4.3 21:43:44 42° SSE 21:45:21 57° E 21:50:53 10° NNE
H-2A R/B 4.4 21:46:43 12° NE 21:46:43 12° NE 21:48:09 10° NE
Cosmos 2322 3.8 21:41:43 10° SSW 21:47:22 79° WNW 21:53:05 10° NNE
ERS-1 Rocket 3.1 21:46:40 34° S 21:48:50 69° WSW 21:53:52 10° NNW
ATLAS 3B R/B 2.6 21:44:40 10° NW 21:51:24 77° WSW 21:53:55 40° SSE
USA 245 3.6 21:51:09 57° SSE 21:52:07 81° ENE 21:56:21 10° N
Cosmos 1500 3.3 21:52:07 61° SW 21:52:38 72° W 21:56:32 10° N
Meteor 1-29 4.2 21:49:28 10° N 21:52:41 40° WNW 21:54:01 27° WSW
Cosmos 2360 Rocket 2.8 21:51:04 10° SW 21:56:35 55° WNW 22:02:08 10° NNE
COSMOS 2428 2.6 21:55:48 35° S 21:58:15 71° ESE 22:03:59 10° NNE
Cosmos 1745 Rocket 3.9 22:01:10 51° SE 22:02:23 61° E 22:08:28 10° NNE
Cosmos 1844 3.8 21:59:26 10° NNW 22:05:04 60° ENE 22:05:53 54° E
H-2A R/B 1.8 22:08:24 71° SSE 22:08:57 86° ENE 22:13:57 10° NNW
Cosmos 1892 Rocket 3.8 22:05:44 10° NNW 22:10:08 64° W 22:10:26 62° WSW
Cosmos 2333 Rocket 3.0 22:13:04 36° ENE 22:13:04 36° ENE 22:16:51 10° NE
Cosmos 1238 Rocket 4.2 22:06:31 10° NNW 22:13:13 69° W 22:15:42 38° SSW
NOSS 3-2 (C) 4.2 22:06:06 10° NNW 22:13:30 62° NE 22:16:02 44° ESE
Cosmos 1437 Rocket 4.1 22:19:12 35° NNE 22:19:12 35° NNE 22:21:33 10° NNE
Cosmos 2333 4.1 22:16:47 43° SSW 22:18:44 86° WNW 22:24:23 10° NNE
Cosmos 1544 Rocket 4.0 22:24:22 56° W 22:24:34 56° W 22:28:58 10° N
Cosmos 1486 Rocket 4.4 22:20:31 10° NNW 22:25:37 54° WSW 22:26:11 51° SW
Cosmos 1386 Rocket 4.3 22:25:46 69° SE 22:26:22 74° E 22:32:40 10° N
Cosmos 2237 Rocket 3.5 22:30:37 27° ENE 22:30:37 27° ENE 22:33:23 10° NE
ATLAS 2AS CENTAUR R/B 4.3 22:23:44 10° WSW 22:31:04 41° NW 22:38:42 10° NNE
SPOT 5 3.6 22:33:36 43° WSW 22:33:55 44° W 22:38:24 10° NNW
GP-B 4.1 22:29:36 10° N 22:32:32 39° NNE 22:32:32 39° NNE
BREEZE M DEB (TANK) 4.1 22:30:33 10° WSW 22:33:38 27° WSW 22:33:38 27° WSW
Cosmos 1455 Rocket 3.9 22:37:04 47° WNW 22:37:04 47° WNW 22:41:20 10° N
CENTAUR R/B 3.8 22:33:26 10° NNW 22:40:46 43° NE 22:43:21 35° E
NOSS 3-4 (A) 3.4 22:41:26 74° E 22:41:26 74° E 22:47:32 10° NE
NOSS 3-4 (C) 3.4 22:41:38 72° E 22:41:38 72° E 22:47:38 10° NE
Lacrosse 5 3.8 22:37:50 10° W 22:42:11 28° NNW 22:46:34 10° NNE
Nadezhda 1 Rocket 4.3 22:46:03 10° NNW 22:52:16 61° W 22:53:09 56° SW
Timation 1 Rocket 4.3 22:47:35 10° NNW 22:53:16 77° NNE 22:53:16 77° NNE
Cosmos 2278 Rocket 2.5 23:01:50 10° NNW 23:06:39 65° NNW 23:06:39 65° NNW
Cosmos 1709 Rocket 4.0 23:10:41 77° NNW 23:10:41 77° NNW 23:16:31 10° N
Cosmos 1844 Rocket 3.9 23:05:23 10° NW 23:10:09 31° W 23:10:09 31° W
Cosmos 2181 Rocket 4.0 23:04:40 10° N 23:10:38 75° NNE 23:10:38 75° NNE
Terra 3.1 23:16:55 36° WNW 23:16:55 36° WNW 23:20:12 10° NNW
H-2A R/B 3.9 23:23:50 29° NNW 23:23:50 29° NNW 23:26:06 10° NNW
NOSS 3-2 (A) 4.5 23:18:07 10° NW 23:25:19 46° WSW 23:25:38 46° WSW
Cosmos 2219 Rocket 3.3 23:24:26 37° W 23:25:24 40° WNW 23:30:43 10° N
CZ-2C R/B 4.3 23:20:28 10° NNE 23:22:55 25° NE 23:22:55 25° NE
SL-16 R/B 3.7 23:39:44 29° NE 23:39:44 29° NE 23:42:28 10° NNE
